This is the latest recevied weather packets stored in our database for station/object HB9TJM-8. If no packets are shown the sender has not sent any weather packets the latest 10 day(s).
| Time | Temp. | Humidity | Pressure | Rain* | Wind** | Luminosity | Snow |
|---|---|---|---|---|---|---|---|
| 1777930242 | 8.33° C | 91% | 1013.6 hPa | 0 mm | - | 0 W/m² | - |
| 1777929935 | 8.33° C | 89% | 1013.5 hPa | 0 mm | - | 0 W/m² | - |
| 1777929627 | 7.78° C | 91% | 1013.6 hPa | 0 mm | - | 0 W/m² | - |
| 1777929012 | 7.78° C | 95% | 1013.9 hPa | 0 mm | - | 0 W/m² | - |
| 1777928396 | 7.78° C | 96% | 1014.1 hPa | 0 mm | - | 0 W/m² | - |
| 1777928089 | 7.22° C | 95% | 1014.3 hPa | 0 mm | - | 0 W/m² | - |
| 1777927473 | 7.78° C | 95% | 1013.9 hPa | 0 mm | - | 0 W/m² | - |
| 1777927165 | 7.78° C | 94% | 1014.1 hPa | 0 mm | - | 0 W/m² | - |
| 1777926858 | 7.78° C | 93% | 1014 hPa | 0 mm | - | 0 W/m² | - |
| 1777926242 | 7.78° C | 94% | 1014.2 hPa | 0 mm | - | 0 W/m² | - |
| 1777925934 | 7.78° C | 94% | 1014.2 hPa | 0 mm | - | 0 W/m² | - |
| 1777925627 | 7.78° C | 94% | 1014.3 hPa | 0 mm | - | 0 W/m² | - |
| 1777925320 | 7.78° C | 96% | 1014.1 hPa | 0 mm | - | 0 W/m² | - |
| 1777925012 | 7.78° C | 96% | 1014.3 hPa | 0 mm | - | 0 W/m² | - |
| 1777924704 | 7.78° C | 97% | 1014.3 hPa | 0 mm | - | 0 W/m² | - |
| 1777924397 | 7.78° C | 97% | 1014.2 hPa | 0 mm | - | 0 W/m² | - |
| 1777924089 | 8.33° C | 97% | 1014.3 hPa | 0 mm | - | 0 W/m² | - |
| 1777923781 | 8.33° C | 97% | 1014.1 hPa | 0 mm | - | 0 W/m² | - |
| 1777923474 | 8.33° C | 97% | 1014.2 hPa | 0 mm | - | 0 W/m² | - |
| 1777923166 | 8.33° C | 97% | 1014.1 hPa | 0 mm | - | 0 W/m² | - |
| 1777922858 | 8.33° C | 97% | 1014.3 hPa | 0 mm | - | 0 W/m² | - |
| 1777922551 | 8.33° C | 97% | 1014.3 hPa | 0 mm | - | 0 W/m² | - |
| 1777922243 | 8.33° C | 97% | 1014.3 hPa | 0 mm | - | 0 W/m² | - |
| 1777921936 | 8.89° C | 97% | 1014.5 hPa | 0 mm | - | 0 W/m² | - |
| 1777920707 | 8.89° C | 96% | 1014.7 hPa | 0 mm | - | 1 W/m² | - |
* Rain latest hour (hover to see other rain measurements)
** Current wind speed in m/s (hover to see current wind gust speed)